Regional Weather Roundup
Issued by NWS

Home | Current Version | Previous Version | Graphics & Text | Print | Product List | Glossary Off
Versions: 1 2 3 4 5 6 7 8 9 10 11 12 13 14 15 16 17 18 19 20 21 22 23 24 25 26 27 28 29 30 31 32 33 34 35 36 37 38 39 40 41 42 43 44 45 46 47 48 49 50

000
ASUS43 KFSD 130302
RWRSD

WEATHER ROUNDUP FOR SOUTH DAKOTA
NATIONAL WEATHER SERVICE SIOUX FALLS SD
900 PM CST FRI FEB 12 2016

NOTE: "FAIR" INDICATES FEW OR NO CLOUDS BELOW 12,000 FEET WITH NO
SIGNIFICANT WEATHER AND/OR OBSTRUCTIONS TO VISIBILITY.


SDZ001>005-009-010-012>017-130400-
NORTHWEST AND NORTH CENTRAL SOUTH DAKOTA

CITY           SKY/WX    TMP DP  RH WIND       PRES   REMARKS
BUFFALO          N/A     20  16  84 SE18      30.24R WCI   5
FAITH            N/A     16   7  67 SE18      30.39F WCI   0
MOBRIDGE       CLOUDY     7   0  73 E15       30.50F WCI -10
$$

SDZ012>016-024>037-041>051-057-063-072>074-130400-
SOUTHWEST AND SOUTH CENTRAL SOUTH DAKOTA

CITY           SKY/WX    TMP DP  RH WIND       PRES   REMARKS
RAPID CTY ARPT CLOUDY    23  20  88 SE14      30.32F WCI  11
PIERRE         CLOUDY    13   7  77 E16       30.52F WCI  -3
CUSTER         FOG       25  23  92 SW9G23    30.21F VSB 1/2 WCI  15
ELLSWORTH AFB  CLOUDY    23  23  99 SE14      30.30F WCI  10
PHILIP         CLOUDY    21  16  81 SE13G20   30.44S WCI   9
PINE RIDGE     CLOUDY    29  24  82 E14       30.33R WCI  18
WINNER         CLOUDY    18   9  68 SE15      30.50F WCI   4
$$

SDZ004>011-016>023-039-040-130400-
NORTHEAST SOUTH DAKOTA

CITY           SKY/WX    TMP DP  RH WIND       PRES   REMARKS
ABERDEEN       CLOUDY     1  -9  62 NE3       30.64S
WATERTOWN      CLOUDY    -6 -13  71 NW3       30.57S
BROOKINGS      CLOUDY    -2 -10  69 N6        30.58S WCI -14
SISSETON         N/A     -7 -13  75 N6        30.64F WCI -20
$$

SDZ017-020-022-023-036>040-048>070-130400-
SOUTHEAST SOUTH DAKOTA

CITY           SKY/WX    TMP DP  RH WIND       PRES   REMARKS
SIOUX FALLS    CLOUDY     3  -6  66 N3        30.60S
HURON          PTCLDY     3  -6  66 NE6       30.64S WCI  -8
CHAMBERLAIN    CLOUDY    12   6  76 E8        30.57F WCI   0
MITCHELL       CLOUDY     7  -1  70 NE7       30.63F WCI  -5
YANKTON        CLOUDY     9   0  66 N7        30.64S WCI  -3
$$

ABBREVIATIONS USED IN REMARKS
   TC - TEMPERATURE IN CELSIUS
  WCI - WIND CHILL INDEX
   HX - HEAT INDEX
  VSB - VISIBILITY




USA.gov is the U.S. government's official web portal to all federal, state and local government web resources and services.